Year,Month,Day,Hour,Minute,Value (Times are PST for barometer in hPa)
2012,12,17,00,00,978.64
2012,12,17,00,01,978.63
2012,12,17,00,02,978.60
2012,12,17,00,03,978.63
2012,12,17,00,04,978.63
2012,12,17,00,05,978.60
2012,12,17,00,06,978.63
2012,12,17,00,07,978.63
2012,12,17,00,08,978.63
2012,12,17,00,09,978.67
2012,12,17,00,10,978.67
2012,12,17,00,11,978.63
2012,12,17,00,12,978.57
2012,12,17,00,13,978.57
2012,12,17,00,14,978.57
2012,12,17,00,15,978.62
2012,12,17,00,16,978.63
2012,12,17,00,17,978.67
2012,12,17,00,18,978.70
2012,12,17,00,19,978.61
2012,12,17,00,20,978.63
2012,12,17,00,21,978.63
2012,12,17,00,22,978.67
2012,12,17,00,23,978.67
2012,12,17,00,24,978.67
2012,12,17,00,25,978.70
2012,12,17,00,26,978.70
2012,12,17,00,27,978.67
2012,12,17,00,28,978.67
2012,12,17,00,29,978.70
2012,12,17,00,30,978.67
2012,12,17,00,31,978.70
2012,12,17,00,32,978.70
2012,12,17,00,33,978.70
2012,12,17,00,34,978.67
2012,12,17,00,35,978.67
2012,12,17,00,36,978.67
2012,12,17,00,37,978.63
2012,12,17,00,38,978.63
2012,12,17,00,39,978.63
2012,12,17,00,40,978.67
2012,12,17,00,41,978.67
2012,12,17,00,42,978.67
2012,12,17,00,43,978.70
2012,12,17,00,44,978.67
2012,12,17,00,45,978.70
2012,12,17,00,46,978.70
2012,12,17,00,47,978.73
2012,12,17,00,48,978.77
2012,12,17,00,49,978.84
2012,12,17,00,50,978.84
2012,12,17,00,51,978.84
2012,12,17,00,52,978.80
2012,12,17,00,53,978.80
2012,12,17,00,54,978.84
2012,12,17,00,55,978.74
2012,12,17,00,56,978.73
2012,12,17,00,57,978.77
2012,12,17,00,58,978.77
2012,12,17,00,59,978.73
2012,12,17,01,00,978.80
2012,12,17,01,01,978.80
2012,12,17,01,02,978.80
2012,12,17,01,03,978.84
2012,12,17,01,04,978.87
2012,12,17,01,05,978.87
2012,12,17,01,06,978.87
2012,12,17,01,07,978.87
2012,12,17,01,08,978.84
2012,12,17,01,09,978.87
2012,12,17,01,10,978.80
2012,12,17,01,11,978.84
2012,12,17,01,12,978.84
2012,12,17,01,13,978.80
2012,12,17,01,14,978.80
2012,12,17,01,15,978.80
2012,12,17,01,16,978.80
2012,12,17,01,17,978.77
2012,12,17,01,18,978.80
2012,12,17,01,19,978.84
2012,12,17,01,20,978.89
2012,12,17,01,21,978.87
2012,12,17,01,22,978.87
2012,12,17,01,23,978.90
2012,12,17,01,24,978.87
2012,12,17,01,25,978.87
2012,12,17,01,26,978.84
2012,12,17,01,27,978.89
2012,12,17,01,28,978.87
2012,12,17,01,29,978.87
2012,12,17,01,30,978.84
2012,12,17,01,31,978.84
2012,12,17,01,32,978.80
2012,12,17,01,33,978.80
2012,12,17,01,34,978.77
2012,12,17,01,35,978.77
2012,12,17,01,36,978.80
2012,12,17,01,37,978.71
2012,12,17,01,38,978.70
2012,12,17,01,39,978.73
2012,12,17,01,40,978.73
2012,12,17,01,41,978.73
2012,12,17,01,42,978.73
2012,12,17,01,43,978.77
2012,12,17,01,44,978.73
2012,12,17,01,45,978.70
2012,12,17,01,46,978.73
2012,12,17,01,47,978.70
2012,12,17,01,48,978.70
2012,12,17,01,49,978.73
2012,12,17,01,50,978.73
2012,12,17,01,51,978.73
2012,12,17,01,52,978.73
2012,12,17,01,53,978.70
2012,12,17,01,54,978.70
2012,12,17,01,55,978.73
2012,12,17,01,56,978.73
2012,12,17,01,57,978.70
2012,12,17,01,58,978.70
2012,12,17,01,59,978.70
2012,12,17,02,00,978.70
2012,12,17,02,01,978.70
2012,12,17,02,02,978.70
2012,12,17,02,03,978.73
2012,12,17,02,04,978.73
2012,12,17,02,05,978.73
2012,12,17,02,06,978.73
2012,12,17,02,07,978.70
2012,12,17,02,08,978.73
2012,12,17,02,09,978.73
2012,12,17,02,10,978.79
2012,12,17,02,11,978.80
2012,12,17,02,12,978.80
2012,12,17,02,13,978.84
2012,12,17,02,14,978.89
2012,12,17,02,15,978.90
2012,12,17,02,16,978.96
2012,12,17,02,17,979.01
2012,12,17,02,18,979.06
2012,12,17,02,19,979.04
2012,12,17,02,20,979.04
2012,12,17,02,21,979.07
2012,12,17,02,22,979.13
2012,12,17,02,23,979.17
2012,12,17,02,24,979.21
2012,12,17,02,25,979.24
2012,12,17,02,26,979.28
2012,12,17,02,27,979.24
2012,12,17,02,28,979.28
2012,12,17,02,29,979.24
2012,12,17,02,30,979.24
2012,12,17,02,31,979.24
2012,12,17,02,32,979.24
2012,12,17,02,33,979.28
2012,12,17,02,34,979.31
2012,12,17,02,35,979.28
2012,12,17,02,36,979.28
2012,12,17,02,37,979.34
2012,12,17,02,38,979.34
2012,12,17,02,39,979.34
2012,12,17,02,40,979.38
2012,12,17,02,41,979.44
2012,12,17,02,42,979.41
2012,12,17,02,43,979.38
2012,12,17,02,44,979.41
2012,12,17,02,45,979.48
2012,12,17,02,46,979.48
2012,12,17,02,47,979.48
2012,12,17,02,48,979.51
2012,12,17,02,49,979.55
2012,12,17,02,50,979.55
2012,12,17,02,51,979.61
2012,12,17,02,52,979.65
2012,12,17,02,53,979.74
2012,12,17,02,54,979.75
2012,12,17,02,55,979.78
2012,12,17,02,56,979.73
2012,12,17,02,57,979.77
2012,12,17,02,58,979.78
2012,12,17,02,59,979.75
2012,12,17,03,00,979.75
2012,12,17,03,01,979.75
2012,12,17,03,02,979.75
2012,12,17,03,03,979.75
2012,12,17,03,04,979.78
2012,12,17,03,05,979.78
2012,12,17,03,06,979.82
2012,12,17,03,07,979.85
2012,12,17,03,08,979.89
2012,12,17,03,09,979.92
2012,12,17,03,10,979.89
2012,12,17,03,11,979.94
2012,12,17,03,12,979.92
2012,12,17,03,13,979.95
2012,12,17,03,14,979.92
2012,12,17,03,15,979.95
2012,12,17,03,16,979.99
2012,12,17,03,17,979.99
2012,12,17,03,18,979.99
2012,12,17,03,19,979.99
2012,12,17,03,20,980.02
2012,12,17,03,21,980.06
2012,12,17,03,22,980.06
2012,12,17,03,23,980.09
2012,12,17,03,24,980.09
2012,12,17,03,25,980.15
2012,12,17,03,26,980.12
2012,12,17,03,27,980.16
2012,12,17,03,28,980.19
2012,12,17,03,29,980.22
2012,12,17,03,30,980.26
2012,12,17,03,31,980.22
2012,12,17,03,32,980.28
2012,12,17,03,33,980.33
2012,12,17,03,34,980.38
2012,12,17,03,35,980.45
2012,12,17,03,36,980.50
2012,12,17,03,37,980.53
2012,12,17,03,38,980.59
2012,12,17,03,39,980.65
2012,12,17,03,40,980.70
2012,12,17,03,41,980.76
2012,12,17,03,42,980.86
2012,12,17,03,43,980.96
2012,12,17,03,44,981.00
2012,12,17,03,49,981.27
2012,12,17,03,50,981.41
2012,12,17,03,51,981.48
2012,12,17,03,52,981.55
2012,12,17,03,53,981.65
2012,12,17,03,54,981.68
2012,12,17,03,55,981.82
2012,12,17,03,56,981.82
2012,12,17,03,57,981.94
2012,12,17,03,58,981.99
2012,12,17,03,59,982.05
2012,12,17,04,00,982.05
2012,12,17,04,01,982.12
2012,12,17,04,02,982.15
2012,12,17,04,03,982.15
2012,12,17,04,04,982.15
2012,12,17,04,05,982.19
2012,12,17,04,06,982.28
2012,12,17,04,07,982.32
2012,12,17,04,08,982.39
2012,12,17,04,09,982.43
2012,12,17,04,10,982.43
2012,12,17,04,11,982.46
2012,12,17,04,12,982.53
2012,12,17,04,13,982.59
2012,12,17,04,14,982.63
2012,12,17,04,15,982.70
2012,12,17,04,16,982.73
2012,12,17,04,17,982.76
2012,12,17,04,18,982.76
2012,12,17,04,19,982.83
2012,12,17,04,20,982.90
2012,12,17,04,21,982.87
2012,12,17,04,22,982.93
2012,12,17,04,23,982.93
2012,12,17,04,24,983.03
2012,12,17,04,25,983.10
2012,12,17,04,26,983.10
2012,12,17,04,27,983.10
2012,12,17,04,28,983.17
2012,12,17,04,29,983.20
2012,12,17,04,30,983.20
2012,12,17,04,31,983.20
2012,12,17,04,32,983.30
2012,12,17,04,33,983.34
2012,12,17,04,34,983.37
2012,12,17,04,35,983.41
2012,12,17,04,36,983.41
2012,12,17,04,37,983.48
2012,12,17,04,38,983.48
2012,12,17,04,39,983.48
2012,12,17,04,40,983.51
2012,12,17,04,41,983.58
2012,12,17,04,42,983.64
2012,12,17,04,43,983.61
2012,12,17,04,44,983.64
2012,12,17,04,45,983.61
2012,12,17,04,46,983.64
2012,12,17,04,47,983.75
2012,12,17,04,48,983.78
2012,12,17,04,49,983.85
2012,12,17,04,50,983.85
2012,12,17,04,51,983.92
2012,12,17,04,52,983.98
2012,12,17,04,53,984.08
2012,12,17,04,54,984.15
2012,12,17,04,55,984.19
2012,12,17,04,56,984.25
2012,12,17,04,57,984.25
2012,12,17,04,58,984.32
2012,12,17,04,59,984.36
2012,12,17,05,00,984.42
2012,12,17,05,01,984.46
2012,12,17,05,02,984.49
2012,12,17,05,03,984.53
2012,12,17,05,04,984.53
2012,12,17,05,05,984.59
2012,12,17,05,06,984.63
2012,12,17,05,07,984.73
2012,12,17,05,08,984.80
2012,12,17,05,09,984.86
2012,12,17,05,10,984.93
2012,12,17,05,11,984.97
2012,12,17,05,12,985.00
2012,12,17,05,13,985.00
2012,12,17,05,14,984.97
2012,12,17,05,15,985.00
2012,12,17,05,16,985.00
2012,12,17,05,17,984.97
2012,12,17,05,18,984.97
2012,12,17,05,19,985.07
2012,12,17,05,20,985.10
2012,12,17,05,21,985.20
2012,12,17,05,22,985.24
2012,12,17,05,23,985.24
2012,12,17,05,24,985.24
2012,12,17,05,25,985.20
2012,12,17,05,26,985.24
2012,12,17,05,27,985.34
2012,12,17,05,28,985.43
2012,12,17,05,29,985.51
2012,12,17,05,30,985.60
2012,12,17,05,31,985.64
2012,12,17,05,32,985.71
2012,12,17,05,33,985.71
2012,12,17,05,34,985.78
2012,12,17,05,35,985.81
2012,12,17,05,36,985.81
2012,12,17,05,37,985.88
2012,12,17,05,38,985.95
2012,12,17,05,39,985.98
2012,12,17,05,40,986.05
2012,12,17,05,41,986.08
2012,12,17,05,42,986.15
2012,12,17,05,43,986.15
2012,12,17,05,44,986.18
2012,12,17,05,45,986.18
2012,12,17,05,46,986.22
2012,12,17,05,47,986.22
2012,12,17,05,48,986.32
2012,12,17,05,49,986.35
2012,12,17,05,50,986.39
2012,12,17,05,51,986.39
2012,12,17,05,52,986.42
2012,12,17,05,53,986.49
2012,12,17,05,54,986.56
2012,12,17,05,55,986.59
2012,12,17,05,56,986.62
2012,12,17,05,57,986.75
2012,12,17,05,58,986.73
2012,12,17,05,59,986.79
2012,12,17,06,00,986.86
2012,12,17,06,01,986.90
2012,12,17,06,02,986.96
2012,12,17,06,03,987.00
2012,12,17,06,04,987.06
2012,12,17,06,05,987.06
2012,12,17,06,06,987.10
2012,12,17,06,07,987.13
2012,12,17,06,08,987.20
2012,12,17,06,09,987.23
2012,12,17,06,10,987.27
2012,12,17,06,11,987.34
2012,12,17,06,12,987.37
2012,12,17,06,13,987.44
2012,12,17,06,14,987.44
2012,12,17,06,15,987.44
2012,12,17,06,16,987.47
2012,12,17,06,17,987.51
2012,12,17,06,18,987.51
2012,12,17,06,19,987.57
2012,12,17,06,20,987.64
2012,12,17,06,21,987.67
2012,12,17,06,22,987.67
2012,12,17,06,23,987.74
2012,12,17,06,24,987.74
2012,12,17,06,25,987.81
2012,12,17,06,26,987.78
2012,12,17,06,27,987.81
2012,12,17,06,28,987.88
2012,12,17,06,29,987.88
2012,12,17,06,30,987.97
2012,12,17,06,31,988.01
2012,12,17,06,32,988.01
2012,12,17,06,33,988.05
2012,12,17,06,34,988.15
2012,12,17,06,35,988.15
2012,12,17,06,36,988.18
2012,12,17,06,37,988.18
2012,12,17,06,38,988.25
2012,12,17,06,39,988.28
2012,12,17,06,40,988.32
2012,12,17,06,41,988.35
2012,12,17,06,42,988.39
2012,12,17,06,43,988.45
2012,12,17,06,44,988.49
2012,12,17,06,45,988.59
2012,12,17,06,46,988.62
2012,12,17,06,47,988.69
2012,12,17,06,48,988.72
2012,12,17,06,49,988.76
2012,12,17,06,50,988.79
2012,12,17,06,51,988.86
2012,12,17,06,52,988.92
2012,12,17,06,53,988.96
2012,12,17,06,54,989.00
2012,12,17,06,55,989.10
2012,12,17,06,56,989.10
2012,12,17,06,57,989.13
2012,12,17,06,58,989.16
2012,12,17,06,59,989.23
2012,12,17,07,00,989.27
2012,12,17,07,01,989.27
2012,12,17,07,02,989.36
2012,12,17,07,03,989.37
2012,12,17,07,04,989.37
2012,12,17,07,05,989.40
2012,12,17,07,06,989.49
2012,12,17,07,07,989.54
2012,12,17,07,08,989.60
2012,12,17,07,09,989.64
2012,12,17,07,10,989.67
2012,12,17,07,11,989.74
2012,12,17,07,12,989.74
2012,12,17,07,13,989.71
2012,12,17,07,14,989.71
2012,12,17,07,15,989.71
2012,12,17,07,16,989.76
2012,12,17,07,17,989.77
2012,12,17,07,18,989.81
2012,12,17,07,19,989.84
2012,12,17,07,20,989.81
2012,12,17,07,21,989.90
2012,12,17,07,22,989.91
2012,12,17,07,23,989.98
2012,12,17,07,24,990.01
2012,12,17,07,25,990.08
2012,12,17,07,26,990.08
2012,12,17,07,27,990.11
2012,12,17,07,28,990.21
2012,12,17,07,29,990.28
2012,12,17,07,30,990.28
2012,12,17,07,31,990.28
2012,12,17,07,32,990.28
2012,12,17,07,33,990.34
2012,12,17,07,34,990.42
2012,12,17,07,35,990.48
2012,12,17,07,36,990.49
2012,12,17,07,37,990.55
2012,12,17,07,38,990.59
2012,12,17,07,39,990.55
2012,12,17,07,40,990.62
2012,12,17,07,41,990.71
2012,12,17,07,42,990.72
2012,12,17,07,43,990.76
2012,12,17,07,44,990.82
2012,12,17,07,45,990.82
2012,12,17,07,46,990.79
2012,12,17,07,47,990.79
2012,12,17,07,48,990.86
2012,12,17,07,49,990.86
2012,12,17,07,50,990.86
2012,12,17,07,51,990.86
2012,12,17,07,52,990.89
2012,12,17,07,53,990.93
2012,12,17,07,54,990.99
2012,12,17,07,55,990.99
2012,12,17,07,56,990.99
2012,12,17,07,57,991.03
2012,12,17,07,58,991.09
2012,12,17,07,59,991.13
2012,12,17,08,00,991.16
2012,12,17,08,01,991.20
2012,12,17,08,02,991.25
2012,12,17,08,03,991.30
2012,12,17,08,04,991.39
2012,12,17,08,05,991.47
2012,12,17,08,06,991.40
2012,12,17,08,07,991.46
2012,12,17,08,08,991.53
2012,12,17,08,09,991.60
2012,12,17,08,10,991.64
2012,12,17,08,11,991.69
2012,12,17,08,12,991.77
2012,12,17,08,13,991.70
2012,12,17,08,14,991.76
2012,12,17,08,15,991.83
2012,12,17,08,16,991.81
2012,12,17,08,17,991.87
2012,12,17,08,18,991.91
2012,12,17,08,19,992.01
2012,12,17,08,20,992.04
2012,12,17,08,21,992.01
2012,12,17,08,22,992.04
2012,12,17,08,23,992.14
2012,12,17,08,24,992.24
2012,12,17,08,25,992.31
2012,12,17,08,26,992.31
2012,12,17,08,27,992.28
2012,12,17,08,28,992.34
2012,12,17,08,29,992.31
2012,12,17,08,30,992.38
2012,12,17,08,31,992.47
2012,12,17,08,32,992.48
2012,12,17,08,33,992.45
2012,12,17,08,34,992.51
2012,12,17,08,35,992.48
2012,12,17,08,36,992.52
2012,12,17,08,37,992.52
2012,12,17,08,38,992.48
2012,12,17,08,39,992.52
2012,12,17,08,40,992.57
2012,12,17,08,41,992.68
2012,12,17,08,42,992.72
2012,12,17,08,43,992.79
2012,12,17,08,44,992.89
2012,12,17,08,45,992.92
2012,12,17,08,46,992.92
2012,12,17,08,47,993.05
2012,12,17,08,48,993.03
2012,12,17,08,49,993.06
2012,12,17,08,50,993.06
2012,12,17,08,51,993.09
2012,12,17,08,52,993.16
2012,12,17,08,53,993.19
2012,12,17,08,54,993.26
2012,12,17,08,55,993.26
2012,12,17,08,56,993.33
2012,12,17,08,57,993.33
2012,12,17,08,58,993.40
2012,12,17,08,59,993.43
2012,12,17,09,00,993.43
2012,12,17,09,01,993.47
2012,12,17,09,02,993.47
2012,12,17,09,03,993.47
2012,12,17,09,04,993.50
2012,12,17,09,05,993.53
2012,12,17,09,06,993.60
2012,12,17,09,07,993.63
2012,12,17,09,08,993.67
2012,12,17,09,09,993.63
2012,12,17,09,10,993.70
2012,12,17,09,11,993.74
2012,12,17,09,12,993.74
2012,12,17,09,13,993.84
2012,12,17,09,14,993.84
2012,12,17,09,15,993.80
2012,12,17,09,16,993.80
2012,12,17,09,17,993.86
2012,12,17,09,18,993.91
2012,12,17,09,19,993.94
2012,12,17,09,20,994.06
2012,12,17,09,21,994.07
2012,12,17,09,22,994.11
2012,12,17,09,23,994.14
2012,12,17,09,24,994.27
2012,12,17,09,25,994.35
2012,12,17,09,26,994.45
2012,12,17,09,27,994.52
2012,12,17,09,28,994.55
2012,12,17,09,29,994.58
2012,12,17,09,30,994.62
2012,12,17,09,31,994.68
2012,12,17,09,32,994.72
2012,12,17,09,33,994.78
2012,12,17,09,34,994.79
2012,12,17,09,35,994.79
2012,12,17,09,36,994.82
2012,12,17,09,37,994.85
2012,12,17,09,38,994.92
2012,12,17,09,39,994.96
2012,12,17,09,40,995.02
2012,12,17,09,41,995.06
2012,12,17,09,42,995.09
2012,12,17,09,43,995.12
2012,12,17,09,44,995.09
2012,12,17,09,45,995.09
2012,12,17,09,46,995.16
2012,12,17,09,47,995.16
2012,12,17,09,48,995.16
2012,12,17,09,49,995.19
2012,12,17,09,50,995.26
2012,12,17,09,51,995.29
2012,12,17,09,52,995.35
2012,12,17,09,53,995.43
2012,12,17,09,54,995.43
2012,12,17,09,55,995.50
2012,12,17,09,56,995.50
2012,12,17,09,57,995.55
2012,12,17,09,58,995.63
2012,12,17,09,59,995.67
2012,12,17,10,00,995.70
2012,12,17,10,01,995.76
2012,12,17,10,02,995.80
2012,12,17,10,03,995.84
2012,12,17,10,04,995.93
2012,12,17,10,05,995.97
2012,12,17,10,06,996.01
2012,12,17,10,07,996.10
2012,12,17,10,08,996.17
2012,12,17,10,09,996.27
2012,12,17,10,10,996.31
2012,12,17,10,11,996.34
2012,12,17,10,12,996.34
2012,12,17,10,13,996.41
2012,12,17,10,14,996.48
2012,12,17,10,15,996.51
2012,12,17,10,16,996.51
2012,12,17,10,17,996.51
2012,12,17,10,18,996.51
2012,12,17,10,19,996.48
2012,12,17,10,20,996.48
2012,12,17,10,21,996.48
2012,12,17,10,22,996.55
2012,12,17,10,23,996.55
2012,12,17,10,24,996.58
2012,12,17,10,25,996.58
2012,12,17,10,26,996.55
2012,12,17,10,27,996.51
2012,12,17,10,28,996.60
2012,12,17,10,29,996.65
2012,12,17,10,30,996.72
2012,12,17,10,31,996.78
2012,12,17,10,32,996.82
2012,12,17,10,33,996.85
2012,12,17,10,34,996.82
2012,12,17,10,35,996.85
2012,12,17,10,36,996.89
2012,12,17,10,37,996.89
2012,12,17,10,38,996.89
2012,12,17,10,39,996.89
2012,12,17,10,40,996.79
2012,12,17,10,41,996.82
2012,12,17,10,42,996.91
2012,12,17,10,43,996.95
2012,12,17,10,44,997.04
2012,12,17,10,45,997.09
2012,12,17,10,46,997.15
2012,12,17,10,47,997.12
2012,12,17,10,48,997.22
2012,12,17,10,49,997.22
2012,12,17,10,50,997.22
2012,12,17,10,51,997.26
2012,12,17,10,52,997.33
2012,12,17,10,53,997.29
2012,12,17,10,54,997.29
2012,12,17,10,55,997.22
2012,12,17,10,56,997.32
2012,12,17,10,57,997.29
2012,12,17,10,58,997.29
2012,12,17,10,59,997.33
2012,12,17,11,00,997.33
2012,12,17,11,01,997.42
2012,12,17,11,02,997.50
2012,12,17,11,03,997.50
2012,12,17,11,04,997.56
2012,12,17,11,05,997.56
2012,12,17,11,06,997.60
2012,12,17,11,07,997.63
2012,12,17,11,08,997.66
2012,12,17,11,09,997.66
2012,12,17,11,10,997.66
2012,12,17,11,11,997.70
2012,12,17,11,12,997.73
2012,12,17,11,13,997.77
2012,12,17,11,14,997.73
2012,12,17,11,15,997.80
2012,12,17,11,16,997.83
2012,12,17,11,17,997.83
2012,12,17,11,18,997.83
2012,12,17,11,19,997.87
2012,12,17,11,20,997.87
2012,12,17,11,21,997.97
2012,12,17,11,22,998.00
2012,12,17,11,23,998.00
2012,12,17,11,24,998.00
2012,12,17,11,25,998.09
2012,12,17,11,26,998.14
2012,12,17,11,27,998.10
2012,12,17,11,28,998.17
2012,12,17,11,29,998.17
2012,12,17,11,30,998.23
2012,12,17,11,31,998.17
2012,12,17,11,32,998.17
2012,12,17,11,33,998.17
2012,12,17,11,34,998.24
2012,12,17,11,35,998.18
2012,12,17,11,36,998.21
2012,12,17,11,37,998.27
2012,12,17,11,38,998.34
2012,12,17,11,39,998.41
2012,12,17,11,40,998.38
2012,12,17,11,41,998.43
2012,12,17,11,42,998.44
2012,12,17,11,43,998.48
2012,12,17,11,44,998.51
2012,12,17,11,45,998.48
2012,12,17,11,46,998.51
2012,12,17,11,47,998.54
2012,12,17,11,48,998.48
2012,12,17,11,49,998.48
2012,12,17,11,50,998.44
2012,12,17,11,51,998.44
2012,12,17,11,52,998.41
2012,12,17,11,53,998.53
2012,12,17,11,54,998.49
2012,12,17,11,55,998.51
2012,12,17,11,56,998.51
2012,12,17,11,57,998.51
2012,12,17,11,58,998.45
2012,12,17,11,59,998.59
2012,12,17,12,00,998.58
2012,12,17,12,01,998.61
2012,12,17,12,02,998.61
2012,12,17,12,03,998.65
2012,12,17,12,04,998.65
2012,12,17,12,05,998.74
2012,12,17,12,06,998.82
2012,12,17,12,07,998.75
2012,12,17,12,08,998.82
2012,12,17,12,09,998.78
2012,12,17,12,10,998.88
2012,12,17,12,11,998.88
2012,12,17,12,12,998.85
2012,12,17,12,13,998.85
2012,12,17,12,14,998.88
2012,12,17,12,15,998.92
2012,12,17,12,16,998.95
2012,12,17,12,17,998.99
2012,12,17,12,18,999.02
2012,12,17,12,19,999.02
2012,12,17,12,20,999.05
2012,12,17,12,21,999.05
2012,12,17,12,22,999.12
2012,12,17,12,23,999.09
2012,12,17,12,24,999.05
2012,12,17,12,25,999.05
2012,12,17,12,26,999.02
2012,12,17,12,27,999.02
2012,12,17,12,28,999.08
2012,12,17,12,29,999.09
2012,12,17,12,30,999.12
2012,12,17,12,31,999.15
2012,12,17,12,32,999.15
2012,12,17,12,33,999.19
2012,12,17,12,34,999.15
2012,12,17,12,35,999.22
2012,12,17,12,36,999.22
2012,12,17,12,37,999.26
2012,12,17,12,38,999.32
2012,12,17,12,39,999.36
2012,12,17,12,40,999.30
2012,12,17,12,41,999.42
2012,12,17,12,42,999.39
2012,12,17,12,43,999.39
2012,12,17,12,44,999.39
2012,12,17,12,45,999.39
2012,12,17,12,46,999.43
2012,12,17,12,47,999.39
2012,12,17,12,48,999.45
2012,12,17,12,49,999.49
2012,12,17,12,50,999.49
2012,12,17,12,51,999.49
2012,12,17,12,52,999.53
2012,12,17,12,53,999.47
2012,12,17,12,54,999.49
2012,12,17,12,55,999.53
2012,12,17,12,56,999.53
2012,12,17,12,57,999.47
2012,12,17,12,58,999.49
2012,12,17,12,59,999.49
2012,12,17,13,00,999.46
2012,12,17,13,01,999.52
2012,12,17,13,02,999.56
2012,12,17,13,03,999.53
2012,12,17,13,04,999.53
2012,12,17,13,05,999.58
2012,12,17,13,06,999.69
2012,12,17,13,07,999.63
2012,12,17,13,08,999.59
2012,12,17,13,09,999.63
2012,12,17,13,10,999.70
2012,12,17,13,11,999.70
2012,12,17,13,12,999.73
2012,12,17,13,13,999.79
2012,12,17,13,14,999.83
2012,12,17,13,15,999.87
2012,12,17,13,16,999.83
2012,12,17,13,17,999.87
2012,12,17,13,18,999.87
2012,12,17,13,19,999.87
2012,12,17,13,20,999.83
2012,12,17,13,21,999.90
2012,12,17,13,22,999.93
2012,12,17,13,23,999.90
2012,12,17,13,24,999.99
2012,12,17,13,25,999.91
2012,12,17,13,26,999.96
2012,12,17,13,27,1000.00
2012,12,17,13,28,1000.00
2012,12,17,13,29,1000.00
2012,12,17,13,30,1000.00
2012,12,17,13,31,1000.00
2012,12,17,13,32,1000.06
2012,12,17,13,33,1000.07
2012,12,17,13,34,1000.10
2012,12,17,13,35,1000.10
2012,12,17,13,36,1000.10
2012,12,17,13,37,1000.10
2012,12,17,13,38,1000.10
2012,12,17,13,39,1000.14
2012,12,17,13,40,1000.14
2012,12,17,13,41,1000.17
2012,12,17,13,42,1000.24
2012,12,17,13,43,1000.24
2012,12,17,13,44,1000.24
2012,12,17,13,45,1000.27
2012,12,17,13,46,1000.27
2012,12,17,13,47,1000.33
2012,12,17,13,48,1000.34
2012,12,17,13,49,1000.34
2012,12,17,13,50,1000.40
2012,12,17,13,51,1000.37
2012,12,17,13,52,1000.37
2012,12,17,13,53,1000.34
2012,12,17,13,54,1000.40
2012,12,17,13,55,1000.44
2012,12,17,13,56,1000.44
2012,12,17,13,57,1000.44
2012,12,17,13,58,1000.48
2012,12,17,13,59,1000.51
2012,12,17,14,00,1000.48
2012,12,17,14,01,1000.48
2012,12,17,14,02,1000.53
2012,12,17,14,03,1000.60
2012,12,17,14,04,1000.58
2012,12,17,14,05,1000.61
2012,12,17,14,06,1000.61
2012,12,17,14,07,1000.58
2012,12,17,14,08,1000.61
2012,12,17,14,09,1000.61
2012,12,17,14,10,1000.61
2012,12,17,14,11,1000.64
2012,12,17,14,12,1000.64
2012,12,17,14,13,1000.64
2012,12,17,14,14,1000.64
2012,12,17,14,15,1000.68
2012,12,17,14,16,1000.74
2012,12,17,14,17,1000.69
2012,12,17,14,18,1000.71
2012,12,17,14,19,1000.68
2012,12,17,14,20,1000.77
2012,12,17,14,21,1000.81
2012,12,17,14,22,1000.85
2012,12,17,14,23,1000.91
2012,12,17,14,24,1000.95
2012,12,17,14,25,1000.98
2012,12,17,14,26,1001.07
2012,12,17,14,27,1001.14
2012,12,17,14,28,1001.24
2012,12,17,14,29,1001.35
2012,12,17,14,30,1001.41
2012,12,17,14,31,1001.48
2012,12,17,14,32,1001.58
2012,12,17,14,33,1001.56
2012,12,17,14,34,1001.62
2012,12,17,14,35,1001.72
2012,12,17,14,36,1001.58
2012,12,17,14,37,1001.47
2012,12,17,14,38,1001.37
2012,12,17,14,39,1001.30
2012,12,17,14,40,1001.44
2012,12,17,14,41,1001.42
2012,12,17,14,42,1001.51
2012,12,17,14,43,1001.43
2012,12,17,14,44,1001.48
2012,12,17,14,45,1001.46
2012,12,17,14,46,1001.49
2012,12,17,14,47,1001.46
2012,12,17,14,48,1001.42
2012,12,17,14,49,1001.46
2012,12,17,14,50,1001.51
2012,12,17,14,51,1001.64
2012,12,17,14,52,1001.75
2012,12,17,14,53,1001.76
2012,12,17,14,54,1001.80
2012,12,17,14,55,1001.83
2012,12,17,14,56,1001.83
2012,12,17,14,57,1001.89
2012,12,17,14,58,1001.87
2012,12,17,14,59,1001.92
2012,12,17,15,00,1001.99
2012,12,17,15,01,1002.00
2012,12,17,15,02,1002.00
2012,12,17,15,03,1002.00
2012,12,17,15,04,1002.03
2012,12,17,15,05,1002.03
2012,12,17,15,06,1002.03
2012,12,17,15,07,1002.06
2012,12,17,15,08,1002.07
2012,12,17,15,09,1002.07
2012,12,17,15,10,1002.12
2012,12,17,15,11,1002.17
2012,12,17,15,12,1002.13
2012,12,17,15,13,1002.19
2012,12,17,15,14,1002.20
2012,12,17,15,15,1002.26
2012,12,17,15,16,1002.33
2012,12,17,15,17,1002.40
2012,12,17,15,18,1002.41
2012,12,17,15,19,1002.37
2012,12,17,15,20,1002.37
2012,12,17,15,21,1002.41
2012,12,17,15,22,1002.46
2012,12,17,15,23,1002.42
2012,12,17,15,24,1002.38
2012,12,17,15,25,1002.37
2012,12,17,15,26,1002.37
2012,12,17,15,27,1002.28
2012,12,17,15,28,1002.27
2012,12,17,15,29,1002.33
2012,12,17,15,30,1002.43
2012,12,17,15,31,1002.47
2012,12,17,15,32,1002.53
2012,12,17,15,33,1002.60
2012,12,17,15,34,1002.64
2012,12,17,15,35,1002.64
2012,12,17,15,36,1002.67
2012,12,17,15,37,1002.71
2012,12,17,15,38,1002.74
2012,12,17,15,39,1002.74
2012,12,17,15,40,1002.80
2012,12,17,15,41,1002.81
2012,12,17,15,42,1002.81
2012,12,17,15,43,1002.84
2012,12,17,15,44,1002.85
2012,12,17,15,45,1002.85
2012,12,17,15,46,1002.81
2012,12,17,15,47,1002.90
2012,12,17,15,48,1002.91
2012,12,17,15,49,1002.94
2012,12,17,15,50,1002.98
2012,12,17,15,51,1002.98
2012,12,17,15,52,1002.98
2012,12,17,15,53,1002.98
2012,12,17,15,54,1003.04
2012,12,17,15,55,1003.02
2012,12,17,15,56,1002.98
2012,12,17,15,57,1003.01
2012,12,17,15,58,1003.01
2012,12,17,15,59,1003.07
2012,12,17,16,00,1003.05
2012,12,17,16,01,1003.11
2012,12,17,16,02,1003.17
2012,12,17,16,03,1003.18
2012,12,17,16,04,1003.21
2012,12,17,16,05,1003.22
2012,12,17,16,06,1003.22
2012,12,17,16,07,1003.25
2012,12,17,16,08,1003.25
2012,12,17,16,09,1003.22
2012,12,17,16,10,1003.25
2012,12,17,16,11,1003.31
2012,12,17,16,12,1003.38
2012,12,17,16,13,1003.39
2012,12,17,16,14,1003.35
2012,12,17,16,15,1003.39
2012,12,17,16,16,1003.42
2012,12,17,16,17,1003.51
2012,12,17,16,18,1003.52
2012,12,17,16,19,1003.52
2012,12,17,16,20,1003.52
2012,12,17,16,21,1003.52
2012,12,17,16,22,1003.60
2012,12,17,16,23,1003.62
2012,12,17,16,24,1003.68
2012,12,17,16,25,1003.69
2012,12,17,16,26,1003.75
2012,12,17,16,27,1003.73
2012,12,17,16,28,1003.76
2012,12,17,16,29,1003.82
2012,12,17,16,30,1003.83
2012,12,17,16,31,1003.86
2012,12,17,16,32,1003.90